Weather History for Sydney, NW

Change the Weather History Date:

Sunday, October 6, 2013

  Actual Average Record
Temperature  
Mean Temperature 73 °F -  
Max Temperature 90 °F 73 °F 95 °F (2000)
Min Temperature 56 °F 57 °F 53 °F (2001)
Cooling Degree Days 8    
Growing Degree Days 23 (Base 50)    
Moisture  
Dew Point 40 °F    
Average Humidity 32    
Maximum Humidity 73    
Minimum Humidity 4    
Precipitation  
Precipitation 0.00 in 0.11 in - ()
Sea Level Pressure  
Sea Level Pressure 29.75 in    
Wind  
Wind Speed 7 mph ()    
Max Wind Speed 21 mph    
Max Gust Speed 43 mph    
Visibility 18.0 miles    
Events      
Averages and records for this station are not official NWS values.
T = Trace of Precipitation, MM = Missing Value Source: Averaged Metar Reports

Daily Weather History Graph

Daily Weather History Graph

Search for Another Location

Airport:

Trip Planner

Search our weather history database for the weather conditions in past years. The results will help you decide how hot, cold, wet, or windy it might be!

Date:

Astronomy

Oct. 06, 2013 Rise Set
Actual Time 6:25 AM AEDT 7:01 PM AEDT
Civil Twilight 6:00 AM AEDT 7:26 PM AEDT
Nautical Twilight 5:31 AM AEDT 7:56 PM AEDT
Astronomical Twilight 5:01 AM AEDT 8:26 PM AEDT
Moon 5:52 AM AEDT (10/6) 7:19 PM AEDT (10/6)
Length of Visible Light 13h 25m
Length of Day
12h 35m
New Moon, 1% of the Moon is Illuminated
Oct 6
New Moon
Oct 12
First Quarter
Oct 19
Full
Oct 27
Last Quarter
Nov 3
New

Hourly Weather History & Observations

Time (AEDT) Temp. Dew Point Humidity Pressure Visibility Wind Dir Wind Speed Gust Speed Precip Events Conditions
12:00 AM 64 °F 46 °F 41% 29.88 in 16 mi North 8.1 mph - -   Partly Cloudy
12:00 AM 64.4 °F 46.4 °F 52% 29.86 in - North 8.1 mph - N/A   Clear
12:30 AM 64.4 °F 44.6 °F 49% 29.86 in - NNW 10.4 mph - N/A   Clear
1:00 AM 63 °F 45 °F 41% 29.86 in - NW 4.6 mph - -  
1:00 AM 62.6 °F 44.6 °F 52% 29.86 in - NW 4.6 mph - N/A   Clear
1:30 AM 62.6 °F 46.4 °F 55% 29.83 in - NW 6.9 mph - N/A   Clear
3:00 AM 60 °F 45 °F 48% 29.84 in 16 mi NW 4.6 mph - -   Smoke
3:00 AM 59.0 °F 44.6 °F 59% 29.83 in - NW 4.6 mph - N/A   Clear
3:30 AM 60.8 °F 44.6 °F 55% 29.83 in - North 4.6 mph - N/A   Clear
4:00 AM 59 °F 44 °F 47% 29.82 in - North 4.6 mph - -  
4:00 AM 59.0 °F 44.6 °F 59% 29.80 in - North 4.6 mph - N/A   Clear
4:30 AM 60.8 °F 42.8 °F 52% 29.80 in - NNW 8.1 mph - N/A   Clear
5:00 AM 58 °F 42 °F 45% 29.82 in - NNW 6.9 mph - -  
5:00 AM 57.2 °F 42.8 °F 59% 29.80 in - NNW 6.9 mph - N/A   Clear
6:00 AM 57 °F 42 °F 46% 29.83 in 19 mi NNW 6.9 mph - -   Partly Cloudy
6:00 AM 57.2 °F 42.8 °F 59% 29.80 in - NNW 6.9 mph - N/A   Clear
6:30 AM 59.0 °F 41.0 °F 51% 29.83 in - NNW 6.9 mph - N/A   Clear
7:00 AM 60 °F 42 °F 39% 29.83 in - NW 8.1 mph - -  
7:00 AM 60.8 °F 41.0 °F 48% 29.83 in - NW 8.1 mph - N/A   Clear
7:30 AM 62.6 °F 41.0 °F 45% 29.83 in - NW 6.9 mph - N/A   Clear
8:00 AM 64 °F 41 °F 32% 29.83 in - NNW 5.8 mph - -  
8:00 AM 64.4 °F 41.0 °F 42% 29.83 in - NNW 5.8 mph - N/A   Clear
8:30 AM 64.4 °F 42.8 °F 45% 29.83 in - WNW 5.8 mph - N/A   Clear
9:00 AM 69 °F 42 °F 27% 29.84 in 25 mi WNW 5.8 mph - -   Partly Cloudy
9:00 AM 69.8 °F 42.8 °F 38% 29.83 in - WNW 5.8 mph - N/A   Clear
9:30 AM 71.6 °F 41.0 °F 33% 29.83 in - WNW 5.8 mph - N/A   Clear
10:00 AM 74 °F 42 °F 21% 29.83 in - NNW 4.6 mph - -  
10:00 AM 75.2 °F 42.8 °F 31% 29.80 in - NNW 4.6 mph - N/A   Clear
10:30 AM 78.8 °F 41.0 °F 26% 29.80 in - WNW 5.8 mph - N/A   Clear
11:00 AM 79 °F 38 °F 14% 29.81 in - West 6.9 mph - -  
11:00 AM 78.8 °F 39.2 °F 24% 29.80 in - West 6.9 mph - N/A   Clear
11:30 AM 82.4 °F 33.8 °F 17% 29.77 in - NNW 5.8 mph - N/A   Clear
12:00 PM 83 °F 34 °F 9% 29.77 in 22 mi ESE 5.8 mph - -   Partly Cloudy
12:00 PM 82.4 °F 33.8 °F 17% 29.77 in - ESE 5.8 mph - N/A   Clear
12:30 PM 87.8 °F 28.4 °F 12% 29.74 in - SE 6.9 mph - N/A   Clear
1:00 PM 87 °F 26 °F 5% 29.74 in - SSW 5.8 mph - -  
1:00 PM 87.8 °F 24.8 °F 10% 29.74 in - SSW 5.8 mph - N/A   Clear
1:30 PM 84.2 °F 37.4 °F 19% 29.71 in - SW 5.8 mph - N/A   Clear
2:00 PM 90 °F 22 °F 4% 29.71 in - SSE 4.6 mph - -  
2:00 PM 89.6 °F 21.2 °F 8% 29.71 in - SSE 4.6 mph - N/A   Clear
2:30 PM 89.6 °F 24.8 °F 10% 29.68 in - East 6.9 mph - N/A   Clear
3:00 PM 87 °F 29 °F 6% 29.67 in 22 mi NE 15.0 mph - -   Partly Cloudy
3:00 PM 87.8 °F 28.4 °F 12% 29.65 in - NE 15.0 mph - N/A   Clear
4:00 PM 86.0 °F 33.8 °F 15% 29.62 in - NE 18.4 mph - N/A   Clear
4:30 PM 86.0 °F 35.6 °F 17% 29.62 in - NE 17.3 mph - N/A   Clear
5:00 PM 83 °F 38 °F 12% 29.63 in - NNE 17.3 mph - -  
5:00 PM 82.4 °F 39.2 °F 21% 29.62 in - NNE 17.3 mph - N/A   Clear
5:30 PM 80.6 °F 41.0 °F 24% 29.62 in - NNE 17.3 mph - N/A   Clear
6:00 PM 83 °F 38 °F 12% 29.64 in 19 mi NNE 13.8 mph - -   Partly Cloudy
6:00 PM 82.4 °F 39.2 °F 21% 29.62 in - NNE 13.8 mph - N/A   Clear
7:00 PM 79 °F 40 °F 15% 29.66 in - NE 11.5 mph - -  
7:00 PM 78.8 °F 41.0 °F 26% 29.65 in - NE 11.5 mph - N/A   Clear
7:30 PM 82.4 °F 30.2 °F 15% 29.65 in - Calm Calm - N/A   Clear
8:00 PM 73 °F 54 °F 40% 29.70 in - SSE 8.1 mph - -  
8:00 PM 73.4 °F 53.6 °F 50% 29.68 in - SSE 8.1 mph - N/A   Clear
8:30 PM 77.0 °F 39.2 °F 26% 29.71 in - SW 13.8 mph - N/A   Clear
9:00 PM 78 °F 35 °F 12% 29.72 in 19 mi SW 16.1 mph - -   Partly Cloudy
9:00 PM 78.8 °F 35.6 °F 21% 29.71 in - SW 16.1 mph - N/A   Clear
9:30 PM 77.0 °F 32.0 °F 19% 29.68 in - West 10.4 mph - N/A   Clear
10:00 PM 78 °F 33 °F 11% 29.69 in - NNW 4.6 mph - -  
10:00 PM 77.0 °F 33.8 °F 21% 29.68 in - NNW 4.6 mph - N/A   Clear
10:30 PM 73.4 °F 44.6 °F 36% 29.68 in - ENE 8.1 mph - N/A   Clear
11:00 PM 73 °F 49 °F 32% 29.68 in - ENE 8.1 mph - -  
11:00 PM 73.4 °F 50.0 °F 44% 29.65 in - ENE 8.1 mph - N/A   Clear
11:30 PM 73.4 °F 46.4 °F 38% 29.65 in - North 6.9 mph - N/A   Clear
12:00 AM 72 °F 47 °F 29% 29.68 in 19 mi North 4.6 mph - -   Partly Cloudy
12:00 AM 71.6 °F 46.4 °F 41% 29.65 in - North 4.6 mph - N/A   Clear
12:30 AM 71.6 °F 48.2 °F 43% 29.68 in - NNW 4.6 mph - N/A   Clear
12:51 AM 66.2 °F 57.2 °F 73% 29.68 in - South 20.7 mph 42.6 mph N/A   Clear